Home > Weather > Coral Harbour > Past weeks

Flag for Canada Past Weather in Coral Harbour, Nunavut, Canada — Yesterday and Last 2 Weeks

Now
59 °F

Scattered clouds.


Feels Like: 57 °F
Forecast: 47 / 58 °F
Wind: 12 mph from Northeast

Location: Coral Harbour

Current Time: Jul 27, 2016 at 10:37:00 AM

Latest Report: Jul 27, 2016 at 10:00 AM


Visibility: 15 mi

Pressure: 30.08 "Hg

Humidity: 63%

Dew Point: 46 °F

Location of Coral HarbourLocation

Past Weather in Coral Harbour — Graph

°F

Coral Harbour Temperature Yesterday

Maximum temperature yesterday: 61 °F (at 1:00 PM)
Minimum temperature yesterday: 50 °F (at 12:00 AM)
Average temperature yesterday: 54 °F

High & Low Weather Summary for the Past Weeks

 TemperatureHumidityPressure
High63 °F (Jul 18, 4:00 PM)100% (Jul 12, 9:00 AM)30.08 "Hg (Jul 12, 9:00 AM)
Low37 °F (Jul 15, 4:00 AM)39% (Jul 18, 6:00 PM)29.08 "Hg (Jul 16, 2:00 AM)
Average50 °F81%29.66 "Hg
* Reported Jul 12 9:00 AM — Jul 27 9:00 AM, Coral Harbour, Weather by CustomWeather, © 2016

Note: Actual official high and low records may vary slightly from our data, if they occured in-between our weather recording intervals... More about our weather records

Advertising

Coral Harbour Weather History for the Previous 24 Hours

Scroll right to see more
 ConditionsComfort  
Time TempWeatherWind HumidityBarometerVisibility
9:00 AM
Wed, Jul 27
57 °FPassing clouds.10 mph67%30.08 "Hg15 mi
8:00 AM54 °FScattered clouds.7 mph77%30.08 "Hg15 mi
7:00 AM52 °FScattered clouds.5 mph82%30.07 "Hg15 mi
6:00 AM50 °FPassing clouds.6 mph82%30.06 "Hg15 mi
5:00 AM50 °FPassing clouds.24 mph82%30.03 "Hg15 mi
4:00 AM50 °FPassing clouds.10 mph82%30.06 "Hg15 mi
3:00 AM50 °FPassing clouds.8 mph82%30.06 "Hg15 mi
2:00 AM50 °FPartly cloudy.8 mph82%30.05 "Hg15 mi
1:00 AM48 °FPassing clouds.6 mph87%30.05 "Hg15 mi
12:00 AM50 °FPartly cloudy.9 mph82%30.04 "Hg15 mi
11:00 PM
Tue, Jul 26
50 °FPassing clouds.21 mph82%30.02 "Hg15 mi
10:00 PM50 °FBroken clouds.21 mph82%30.02 "Hg15 mi
9:00 PM52 °FBroken clouds.18 mph82%30.02 "Hg15 mi
8:00 PM54 °FMostly cloudy.15 mph77%30.01 "Hg15 mi
7:00 PM57 °FBroken clouds.14 mph72%30.02 "Hg15 mi
6:00 PM57 °FBroken clouds.13 mph72%30.01 "Hg15 mi
5:00 PM59 °FCloudy.18 mph68%30.00 "Hg15 mi
4:00 PM61 °FCloudy.14 mph68%29.99 "Hg15 mi
3:00 PM61 °FMostly cloudy.15 mph68%29.98 "Hg15 mi
2:00 PM61 °FMostly cloudy.15 mph68%29.97 "Hg15 mi
1:00 PM61 °FCloudy.21 mph68%29.96 "Hg15 mi
12:00 PM59 °FCloudy.21 mph77%29.94 "Hg15 mi
11:00 AM57 °FMore clouds than sun.24 mph77%29.94 "Hg15 mi
10:00 AM55 °FMostly cloudy.18 mph82%29.95 "Hg15 mi
Weather by CustomWeather, © 2016

See weather overviewHow to use our weather pages